| time (UTC) | temp F | wind direction | speed knots | gust knots | rain 1hr in | rain 24hr in | rain mn in | humidity % | barometer mb |
| 20260505025121 | 57 | 230 | 1.7 | 4.3 | 0.00 | 0.00 | 0.00 | 87 | 1009.6 |
| 20260505024122 | 57 | 220 | 1.7 | 4.3 | 0.00 | 0.00 | 0.00 | 87 | 1009.7 |
| 20260505023143 | 57 | 257 | 2.6 | 5.2 | 0.00 | 0.00 | 0.00 | 87 | 1009.6 |
| 20260505022124 | 57 | 157 | 0.9 | 3.5 | 0.00 | 0.00 | 0.00 | 87 | 1009.7 |
| 20260505021124 | 57 | 230 | 1.7 | 3.5 | 0.00 | 0.00 | 0.00 | 87 | 1009.6 |
| 20260505020122 | 57 | 192 | 0.9 | 3.5 | 0.00 | 0.00 | 0.00 | 86 | 1009.6 |
| 20260505015143 | 57 | 262 | 1.7 | 3.5 | 0.00 | 0.00 | 0.00 | 85 | 1009.6 |
| 20260505014122 | 58 | 215 | 2.6 | 4.3 | 0.00 | 0.00 | 0.00 | 83 | 1009.6 |
| 20260505013122 | 58 | 227 | 1.7 | 4.3 | 0.00 | 0.00 | 0.00 | 83 | 1009.5 |
| 20260505012121 | 58 | 243 | 1.7 | 4.3 | 0.00 | 0.00 | 0.00 | 83 | 1009.2 |
| 20260505011122 | 58 | 228 | 1.7 | 4.3 | 0.00 | 0.00 | 0.00 | 82 | 1009.1 |
| 20260505010121 | 58 | 246 | 2.6 | 5.2 | 0.00 | 0.00 | 0.00 | 83 | 1009.0 |
| 20260505005123 | 58 | 248 | 2.6 | 6.1 | 0.00 | 0.00 | 0.00 | 84 | 1009.0 |
| 20260505004121 | 58 | 239 | 2.6 | 6.1 | 0.00 | 0.00 | 0.00 | 83 | 1008.9 |
| 20260505003121 | 58 | 229 | 3.5 | 7.0 | 0.00 | 0.00 | 0.00 | 83 | 1008.6 |
| 20260505002121 | 59 | 244 | 3.5 | 7.8 | 0.00 | 0.00 | 0.00 | 81 | 1008.5 |
| 20260505001121 | 59 | 256 | 2.6 | 5.2 | 0.00 | 0.00 | 0.00 | 79 | 1008.4 |
| 20260505000122 | 59 | 255 | 2.6 | 6.1 | 0.00 | 0.00 | 0.00 | 79 | 1008.4 |
| 20260504235125 | 59 | 261 | 2.6 | 6.1 | 0.00 | 0.00 | 0.00 | 80 | 1008.2 |
| 20260504234142 | 59 | 196 | 2.6 | 5.2 | 0.00 | 0.00 | 0.00 | 79 | 1008.0 |
| 20260504233121 | 59 | 249 | 3.5 | 7.8 | 0.00 | 0.00 | 0.00 | 79 | 1008.0 |
| 20260504232121 | 60 | 209 | 3.5 | 6.1 | 0.00 | 0.00 | 0.00 | 77 | 1008.0 |
| 20260504231123 | 60 | 251 | 4.3 | 7.0 | 0.00 | 0.00 | 0.00 | 76 | 1007.9 |
| 20260504230124 | 60 | 238 | 2.6 | 5.2 | 0.00 | 0.00 | 0.00 | 76 | 1007.9 |
| 20260504225122 | 60 | 251 | 3.5 | 6.1 | 0.00 | 0.00 | 0.00 | 75 | 1008.0 |
| 20260504224121 | 61 | 228 | 3.5 | 7.0 | 0.00 | 0.00 | 0.00 | 73 | 1007.9 |
| 20260504223127 | 62 | 303 | 3.5 | 7.0 | 0.00 | 0.00 | 0.00 | 72 | 1007.9 |
| 20260504222148 | 63 | 241 | 3.5 | 6.1 | 0.00 | 0.00 | 0.00 | 70 | 1008.1 |
| 20260504221143 | 64 | 211 | 3.5 | 6.1 | 0.00 | 0.00 | 0.00 | 68 | 1008.2 |
| 20260504220123 | 64 | 262 | 3.5 | 7.8 | 0.00 | 0.00 | 0.00 | 67 | 1008.2 |
| 20260504215122 | 64 | 223 | 4.3 | 8.7 | 0.00 | 0.00 | 0.00 | 66 | 1008.2 |
| 20260504214147 | 64 | 251 | 4.3 | 9.6 | 0.00 | 0.00 | 0.00 | 65 | 1008.2 |
| 20260504213122 | 65 | 252 | 4.3 | 7.8 | 0.00 | 0.00 | 0.00 | 63 | 1008.4 |
| 20260504212120 | 67 | 247 | 4.3 | 7.8 | 0.00 | 0.00 | 0.00 | 60 | 1008.4 |
| 20260504211121 | 67 | 227 | 3.5 | 7.0 | 0.00 | 0.00 | 0.00 | 61 | 1008.2 |
| 20260504210123 | 67 | 186 | 5.2 | 10.4 | 0.00 | 0.00 | 0.00 | 59 | 1008.2 |
| 20260504205142 | 69 | 210 | 5.2 | 8.7 | 0.00 | 0.00 | 0.00 | 56 | 1008.2 |
| 20260504204143 | 70 | 242 | 3.5 | 7.0 | 0.00 | 0.00 | 0.00 | 56 | 1008.2 |
| 20260504203122 | 72 | 217 | 4.3 | 7.0 | 0.00 | 0.00 | 0.00 | 56 | 1008.2 |
| 20260504202121 | 71 | 222 | 3.5 | 6.1 | 0.00 | 0.00 | 0.00 | 55 | 1008.2 |
| 20260504201142 | 71 | 233 | 4.3 | 7.0 | 0.00 | 0.00 | 0.00 | 53 | 1008.4 |
| 20260504200142 | 72 | 220 | 3.5 | 5.2 | 0.00 | 0.00 | 0.00 | 54 | 1008.4 |
| 20260504195121 | 72 | 237 | 3.5 | 7.8 | 0.00 | 0.00 | 0.00 | 52 | 1008.4 |
| 20260504194121 | 71 | 229 | 5.2 | 7.8 | 0.00 | 0.00 | 0.00 | 53 | 1008.5 |
| 20260504193144 | 72 | 205 | 4.3 | 7.0 | 0.00 | 0.00 | 0.00 | 53 | 1008.6 |
| 20260504192122 | 72 | 227 | 3.5 | 7.8 | 0.00 | 0.00 | 0.00 | 51 | 1008.8 |
| 20260504191123 | 71 | 217 | 4.3 | 7.8 | 0.00 | 0.00 | 0.00 | 52 | 1008.8 |
| 20260504190123 | 72 | 247 | 4.3 | 7.8 | 0.00 | 0.00 | 0.00 | 49 | 1008.8 |
| 20260504185121 | 72 | 181 | 4.3 | 7.8 | 0.00 | 0.00 | 0.00 | 51 | 1008.9 |
| 20260504184122 | 73 | 253 | 4.3 | 7.0 | 0.00 | 0.00 | 0.00 | 51 | 1009.0 |
| 20260504183122 | 74 | 277 | 3.5 | 7.0 | 0.00 | 0.00 | 0.00 | 48 | 1009.1 |
| 20260504182122 | 73 | 225 | 5.2 | 7.8 | 0.00 | 0.00 | 0.00 | 46 | 1009.1 |
| 20260504181122 | 74 | 280 | 5.2 | 13.0 | 0.00 | 0.00 | 0.00 | 43 | 1009.2 |
| 20260504180122 | 74 | 240 | 5.2 | 8.7 | 0.00 | 0.00 | 0.00 | 42 | 1009.2 |
| 20260504175122 | 73 | 262 | 5.2 | 8.7 | 0.00 | 0.00 | 0.00 | 42 | 1009.2 |
| 20260504174123 | 73 | 229 | 4.3 | 8.7 | 0.00 | 0.00 | 0.00 | 42 | 1009.2 |
| 20260504173122 | 73 | 162 | 6.1 | 8.7 | 0.00 | 0.00 | 0.00 | 41 | 1009.4 |
| 20260504172145 | 72 | 209 | 5.2 | 8.7 | 0.00 | 0.00 | 0.00 | 43 | 1009.7 |
| 20260504171121 | 73 | 195 | 5.2 | 9.6 | 0.00 | 0.00 | 0.00 | 44 | 1009.9 |
| 20260504170142 | 71 | 260 | 4.3 | 10.4 | 0.00 | 0.00 | 0.00 | 44 | 1009.9 |
| 20260504160122 | 71 | 272 | 6.1 | 8.7 | 0.00 | 0.00 | 0.00 | 41 | 1010.6 |
| 20260504151124 | 69 | 244 | 4.3 | 8.7 | 0.00 | 0.00 | 0.00 | 44 | 1011.4 |
| 20260504150121 | 68 | 244 | 6.1 | 11.3 | 0.00 | 0.00 | 0.00 | 44 | 1011.4 |
| 20260504141123 | 67 | 274 | 4.3 | 7.8 | 0.00 | 0.00 | 0.00 | 49 | 1011.6 |
| 20260504140122 | 66 | 275 | 5.2 | 10.4 | 0.00 | 0.00 | 0.00 | 49 | 1011.6 |
| 20260504130122 | 62 | 255 | 6.1 | 9.6 | 0.00 | 0.00 | 0.00 | 55 | 1012.2 |
| 20260504120143 | 58 | 244 | 4.3 | 8.7 | 0.00 | 0.00 | 0.00 | 63 | 1012.5 |
| 20260504110142 | 53 | 230 | 2.6 | 6.1 | 0.00 | 0.00 | 0.00 | 68 | 1012.5 |
| 20260504100122 | 48 | 252 | 1.7 | 4.3 | 0.00 | 0.00 | 0.00 | 68 | 1012.2 |
| 20260504090121 | 50 | 246 | 2.6 | 4.3 | 0.00 | 0.00 | 0.00 | 60 | 1011.9 |
| 20260504081124 | 51 | 261 | 2.6 | 5.2 | 0.00 | 0.00 | 0.00 | 59 | 1011.6 |
| 20260504080124 | 51 | 264 | 3.5 | 9.6 | 0.00 | 0.00 | 0.00 | 59 | 1011.6 |
| 20260504070122 | 51 | 267 | 2.6 | 5.2 | 0.00 | 0.00 | 0.00 | 58 | 1011.2 |
| 20260504060122 | 50 | 243 | 2.6 | 5.2 | 0.00 | 0.00 | 0.00 | 59 | 1011.2 |
| 20260504050121 | 50 | 271 | 1.7 | 4.3 | 0.00 | 0.00 | 0.00 | 61 | 1011.0 |
| 20260504045121 | 50 | 262 | 1.7 | 3.5 | 0.00 | 0.00 | 0.00 | 61 | 1011.0 |
| 20260504044122 | 49 | 273 | 1.7 | 3.5 | 0.00 | 0.00 | 0.00 | 62 | 1010.9 |
| 20260504043121 | 49 | 250 | 1.7 | 3.5 | 0.00 | 0.00 | 0.00 | 63 | 1010.8 |
| 20260504042123 | 48 | 255 | 1.7 | 3.5 | 0.00 | 0.00 | 0.00 | 64 | 1010.7 |
| 20260504041121 | 47 | 260 | 0.9 | 1.7 | 0.00 | 0.00 | 0.00 | 65 | 1010.8 |
| 20260504040121 | 47 | 269 | 0.9 | 2.6 | 0.00 | 0.00 | 0.00 | 65 | 1010.8 |
| 20260504035121 | 47 | 180 | 0.0 | 0.0 | 0.00 | 0.00 | 0.00 | 64 | 1010.7 |
| 20260504034121 | 47 | 225 | 0.0 | 2.6 | 0.00 | 0.00 | 0.00 | 63 | 1010.7 |
| 20260504033121 | 47 | 218 | 0.0 | 1.7 | 0.00 | 0.00 | 0.00 | 62 | 1010.6 |
| 20260504032142 | 48 | 180 | 0.0 | 0.0 | 0.00 | 0.00 | 0.00 | 61 | 1010.6 |
| 20260504031121 | 48 | 258 | 0.0 | 1.7 | 0.00 | 0.00 | 0.00 | 60 | 1010.5 |
| 20260504030121 | 48 | 225 | 0.0 | 0.0 | 0.00 | 0.00 | 0.00 | 59 | 1010.5 |